Terug naar catalogus

STARLINK-2492

ActiefCommunicatieVLEO
NORAD 48149·PAYLOAD·🇺🇸 United States

Gelanceerd Apr 7, 2021 vanaf Cape Canaveral Space Force Station

Loading…

Volgende Passages (komende 24 uur)

TLE

VersSource: CelesTrak SupGP

Epoch: Sep 15, 2026, 02:00 UTC

1 48149C 21027BK  26258.08381944  .00043154  00000+0  13873-2 0  2586
2 48149  53.1589 351.5504 0000904  94.3045 296.1833 15.31689452    17

Volg STARLINK-2492 in realtime met AllMySat

Download on the App Store